Regional Weather Roundup
Issued by NWS Midland/Odessa, TX

Skip options and go directly to product.
Home | Oldest Version | Previous Version | Current Version | All | Text Only | Save Text | Print | Product List | Glossary Off

Skip product version selection by date and time.   

909
ASUS44 KMAF 261510
RWRMAF
MIDLAND AREA WEATHER ROUNDUP
NATIONAL WEATHER SERVICE MIDLAND TX
1000 AM CDT SUN JUN 26 2016

...IN SOUTHWEST TEXAS AND SOUTHEAST NEW MEXICO...

CITY           SKY/WX    TMP DP  RH WIND       PRES   REMARKS
ALPINE         SUNNY     79  58  48 SW6       30.25S
ANDREWS        FAIR      76  64  65 SE15      30.19S
ARTESIA        SUNNY     73  64  73 E8        30.20R
BIG SPRING     CLOUDY    70  66  86 E8        30.20R
CARLSBAD       SUNNY     75  62  64 VRB3      30.17R
DRYDEN           N/A     78  69  73 E9        30.10R
FORT STOCKTON  SUNNY     79  66  64 S15G21    30.13R
GUAD PASS      SUNNY     73  60  63 NE30        N/A
HOBBS          MOSUNNY   72  64  78 SE8       30.22R
MARFA            N/A    N/A N/A N/A S8        30.25R
MIDLAND AIRPK  CLOUDY    74  66  77 SE10      30.19R THUNDER
MIDLAND INTL   CLOUDY    76  66  71 SE13      30.18R
ODESSA         CLOUDY    76  65  68 SE16      30.19R
PECOS          SUNNY     81  64  55 E15       30.10S
PRESIDIO       FAIR      83  63  50 NE9       30.11R
SEMINOLE       PTSUNNY   77  65  66 S9G17     30.21S
SNYDER           N/A     71  67  84 S10G16    30.18R
WINK           MOSUNNY   78  65  63 SE17      30.13R
$$
...OTHER STATIONS IN TEXAS...

CITY           SKY/WX    TMP DP  RH WIND       PRES   REMARKS
ABILENE        CLOUDY    77  69  76 SW17G24   30.16R
AMARILLO       CLOUDY    71  61  70 N7        30.22R
AUSTIN         PTSUNNY   82  76  81 S7        30.13F
BROWNSVILLE    MOSUNNY   88  75  65 S13       30.05S
CORPUS CHRISTI PTSUNNY   86  78  77 SE8       30.08R
DALLAS FTW     MOSUNNY   87  72  60 S13       30.12S
DEL RIO        CLOUDY    77  73  87 E6        30.08R
EL PASO        MOSUNNY   80  53  39 E7        30.14R
HOUSTON INT    PTSUNNY   85  74  69 CALM      30.13R
LUBBOCK        PTSUNNY   80  65  59 SW13      30.20R
SAN ANGELO     CLOUDY    73  71  93 NE7       30.16S
SAN ANTONIO    PTSUNNY   82  73  74 SE9       30.14R
WACO           MOSUNNY   85  74  69 S12       30.14S
WICHITA FALLS  NOT AVBL
$$
...OTHER LOCATIONS IN NEW MEXICO...

CITY           SKY/WX    TMP DP  RH WIND       PRES   REMARKS
ALAMAGORDO     MOSUNNY   79  50  36 CALM      30.18R
ALBUQUERQUE    PTSUNNY   77  53  43 E18G26    30.28R
CANNON AFB     CLOUDY    79  64  61 S8        30.24R
CLOVIS         CLOUDY    77  63  61 SE10      30.25R
HOLLOMAN AFB   MOSUNNY   80  54  40 CALM      30.15R
ROSWELL        MOSUNNY   72  62  71 SE15G21   30.23R THUNDER
RUIDOSO          N/A     68  50  52 CALM      30.40R
SANTA FE       SUNNY     74  51  44 SE13      30.36S
TRUTH OR CONSE PTSUNNY   76  51  41 N10       30.21R
TUCUMCARI      CLOUDY    70  65  84 N5        30.24R
$$

USA.gov is the U.S. government's official web portal to all federal, state and local government web resources and services.